Wind_Speed
27 27 27 27 27 27 27 27 27 26 26 25 27 26 26 26 26 26 26 27 27 27 27 27 28 27 27 27 27 27 28 28 29 28 28 28 28 28 27 26 24 25 25 26
27 27 28 28 28 28 28 28 28 28 27 27 28 28 27 27 27 27 27 28 28 28 28 28 28 28 28 28 28 28 28 28 29 29 29 28 28 29 28 27 26 26 27 27
26 26 28 29 28 28 29 29 28 28 28 28 28 28 27 27 28 28 28 29 29 29 30 29 28 28 28 28 28 28 29 29 29 30 30 30 30 28 29 29 29 28 28 28
26 27 30 28 28 28 28 28 28 28 28 28 28 28 28 28 29 29 29 30 30 30 30 30 29 29 29 29 30 30 29 29 29 29 29 30 29 29 30 30 29 29 29 29
27 27 28 28 29 28 28 29 28 28 28 28 28 28 29 30 30 30 30 30 30 31 31 31 31 31 31 31 31 30 30 29 29 29 29 30 30 30 30 29 29 30 30 30
28 27 27 28 28 27 28 30 29 29 28 28 28 29 30 30 30 31 31 31 31 32 32 32 32 32 33 32 31 31 31 31 30 30 31 31 30 30 30 30 31 31 31 32
29 29 28 30 28 27 28 29 29 29 29 30 30 30 30 31 31 32 31 31 32 32 33 33 33 33 34 34 32 32 32 32 32 31 31 31 31 31 32 32 32 33 33 34
30 29 30 30 29 29 29 30 30 30 30 31 31 31 32 32 33 33 33 33 33 33 33 33 34 34 34 34 33 32 32 32 33 33 33 33 33 33 33 33 34 34 34 35
30 30 30 30 30 30 30 30 30 31 32 32 33 33 33 33 33 33 34 33 33 34 35 35 35 34 34 35 35 34 33 33 34 34 34 34 34 35 35 35 35 35 36 36
29 30 31 30 30 31 30 31 31 32 32 33 33 32 33 33 33 34 34 34 34 34 35 35 35 35 35 35 36 35 34 34 34 35 35 35 35 35 36 36 36 36 35 35
29 30 31 31 30 30 30 31 31 32 33 33 32 32 32 33 33 33 33 33 33 33 33 34 35 34 33 34 34 34 34 34 34 34 35 35 35 35 36 36 36 36 35 35
29 31 30 30 31 31 31 31 31 31 32 32 32 32 32 33 33 32 32 32 32 32 33 33 34 33 33 34 34 35 35 35 35 36 35 35 35 35 35 35 35 34 35 35
28 28 28 29 30 31 31 31 31 31 32 32 32 32 32 32 32 32 32 32 32 32 33 33 34 33 33 34 34 35 35 35 35 35 34 34 34 34 35 34 34 34 35 34
27 27 27 28 29 29 30 30 30 30 30 31 31 32 32 32 32 32 32 32 33 33 33 33 33 33 33 34 34 34 33 32 33 33 33 33 33 34 34 34 33 33 32 32
27 28 28 28 28 29 29 29 29 29 29 29 30 31 31 31 32 32 33 33 33 33 33 33 33 33 33 33 33 33 32 32 32 32 33 33 33 33 32 31 31 31 31 31
27 27 27 27 28 28 28 28 28 27 27 28 29 29 30 30 31 31 32 32 32 32 32 32 32 32 32 33 33 33 32 32 31 32 32 32 31 30 30 30 30 30 31 31
27 27 27 27 27 27 27 27 27 26 27 27 28 28 28 29 29 30 30 30 30 31 31 31 32 32 32 32 33 32 31 31 30 30 30 30 30 29 29 29 29 30 30 31
27 27 27 27 27 27 27 27 27 27 27 27 28 28 28 28 28 29 28 29 29 30 30 31 31 31 31 31 31 30 30 30 30 30 30 30 29 29 29 30 30 30 30 30
27 27 27 27 27 27 27 27 28 28 27 27 27 27 27 28 28 28 27 27 27 28 28 28 29 30 30 30 30 30 30 30 30 30 29 29 29 30 30 30 29 29 29 30
26 27 27 27 27 28 28 27 27 27 26 26 26 27 27 26 26 26 26 26 25 26 26 27 27 28 28 29 29 29 30 30 29 29 29 29 29 30 29 29 29 29 29 29
26 26 26 27 27 27 27 27 27 27 26 26 26 26 26 25 25 24 25 25 25 25 25 25 26 26 27 27 28 29 29 29 29 29 29 30 30 29 29 29 29 29 29 29
26 27 27 27 27 27 27 28 28 27 27 26 26 26 26 25 25 25 25 25 25 26 26 26 26 26 26 27 28 28 28 28 29 29 30 30 30 30 29 29 29 29 29 29
25 26 26 26 27 27 27 28 28 28 27 26 26 25 26 25 25 26 26 25 26 26 26 26 26 27 27 28 28 28 28 28 29 29 30 30 29 29 28 28 28 28 28 28
24 25 25 25 25 26 27 27 27 27 26 26 25 25 25 25 26 26 26 26 26 26 27 27 27 27 28 28 28 28 28 28 29 29 29 29 29 28 28 27 27 27 27 26
23 23 24 24 24 24 25 25 26 25 25 24 25 25 25 25 25 26 26 26 27 27 27 27 27 27 27 28 28 27 28 28 28 29 28 28 27 27 27 26 26 25 25 24
21 21 22 22 23 23 24 24 24 24 23 23 23 24 24 25 25 25 25 26 26 26 26 26 26 26 26 27 27 27 27 27 27 27 27 27 27 26 25 25 25 24 23 22
19 20 20 20 21 22 22 22 21 22 22 22 22 22 22 23 23 24 24 24 24 24 24 24 25 26 26 26 25 25 25 25 25 25 25 25 25 25 24 24 23 23 22 22
Wind_Direction
242 242 245 249 251 254 257 258 259 262 266 269 271 273 271 270 270 272 275 276 277 277 278 278 279 281 282 283 284 284 284 284 286 285 284 284 285 287 289 289 287 286 288 290
245 246 248 250 252 255 258 260 262 263 265 267 271 272 272 271 270 271 273 276 277 278 278 278 277 279 282 284 285 284 285 286 285 285 285 283 285 287 289 287 286 287 289 289
246 248 250 252 254 256 258 260 262 264 266 268 270 271 271 270 270 270 271 273 275 277 276 276 277 279 281 283 286 288 289 288 286 287 286 285 285 286 290 288 286 287 288 289
249 250 252 255 257 257 259 260 262 263 264 266 268 269 270 269 270 271 273 274 276 277 277 279 281 281 282 283 285 287 287 287 285 284 285 284 285 288 290 290 288 288 290 291
251 253 257 257 258 259 260 260 261 262 264 266 268 270 270 270 271 272 273 274 276 276 277 279 280 282 281 283 284 285 286 286 284 282 284 286 287 289 290 290 290 289 291 291
252 253 256 259 259 259 260 261 262 263 264 266 269 270 272 273 273 272 273 273 274 275 276 277 279 280 281 281 281 283 284 285 285 285 285 286 286 288 288 290 290 291 291 292
254 255 256 258 260 260 260 262 264 264 265 267 269 271 273 274 275 274 275 276 276 278 277 277 278 280 280 281 280 281 282 283 284 285 285 286 287 286 287 288 290 291 292 291
252 254 255 259 261 261 263 265 267 268 268 269 271 272 273 275 275 276 276 276 276 277 277 277 278 279 280 280 280 281 281 282 283 283 284 285 285 285 286 289 290 290 290 290
253 255 258 259 261 262 262 264 265 267 269 271 272 273 274 275 275 276 278 278 278 278 277 278 279 279 280 281 281 281 281 282 283 283 283 284 285 286 287 288 289 289 289 289
256 257 258 260 263 264 263 264 265 267 269 271 272 272 273 274 276 278 277 277 278 280 280 279 279 280 281 281 283 282 281 282 284 284 284 285 286 287 287 287 288 288 289 289
258 259 260 261 263 265 265 265 266 267 269 270 271 272 273 274 276 278 277 277 279 281 281 281 282 282 282 283 282 282 282 283 284 284 284 285 286 286 287 287 286 286 288 290
258 259 259 261 263 264 265 267 268 269 269 271 272 273 273 275 276 278 277 277 279 280 281 281 282 283 284 283 283 283 283 283 283 282 283 285 286 286 287 287 285 286 287 288
258 258 260 262 263 265 267 268 269 270 270 271 273 273 274 275 276 278 278 278 278 280 281 281 281 282 283 284 284 285 284 284 283 282 282 284 285 284 284 283 283 285 287 288
261 262 262 263 265 267 268 269 271 271 272 272 273 273 274 275 276 277 278 278 278 279 280 280 280 281 283 284 284 285 284 284 284 284 285 285 285 284 284 283 284 285 287 288
263 265 266 266 268 269 270 271 272 272 272 272 273 274 274 275 276 277 278 279 279 279 280 280 280 280 282 283 284 285 285 284 286 286 286 285 284 283 283 284 285 287 289 289
265 266 266 267 269 270 272 273 274 272 273 274 274 274 275 276 277 279 279 280 280 281 281 280 280 280 282 283 284 284 285 285 285 286 285 285 285 284 284 284 286 288 289 290
265 266 267 268 269 270 272 274 274 274 273 275 276 277 278 278 279 280 280 281 281 281 281 281 282 282 282 283 283 283 284 285 285 285 286 287 287 287 288 288 288 289 289 290
265 266 267 268 268 269 271 273 274 276 276 276 278 278 279 279 280 280 281 281 281 282 283 283 284 284 284 284 284 283 284 285 284 284 284 286 287 288 290 291 292 291 291 291
265 265 265 266 268 270 272 274 275 276 278 279 280 280 280 280 280 281 281 281 282 283 283 284 285 284 283 284 284 286 286 287 287 286 286 288 290 291 291 292 293 293 292 292
264 263 264 266 268 270 272 274 275 276 277 278 280 281 281 282 281 281 281 282 284 285 285 286 285 284 284 285 285 285 287 288 287 287 288 289 291 292 292 293 292 292 292 292
265 265 266 268 269 271 273 274 275 276 277 278 279 281 283 283 282 281 281 283 284 285 285 285 286 287 287 287 288 288 288 287 287 288 289 290 291 292 291 291 292 293 294 292
267 266 266 268 269 271 273 274 275 276 276 276 277 279 281 282 282 281 282 283 284 285 285 286 287 288 288 289 289 289 288 288 288 288 289 290 290 291 292 292 292 293 294 293
270 269 270 270 271 271 272 273 274 275 275 276 277 278 280 282 283 283 282 282 284 285 286 286 287 288 288 288 289 289 288 289 289 289 290 290 290 291 292 293 294 294 294 294
273 274 274 273 273 273 273 272 272 273 275 275 275 277 279 281 282 283 283 283 283 285 286 286 286 287 288 288 289 289 288 289 290 290 290 289 289 290 291 293 294 295 294 293
278 278 278 275 274 275 275 274 272 272 273 275 276 277 279 280 281 282 283 284 284 285 285 286 286 286 286 287 290 291 292 292 291 290 289 289 290 291 291 292 294 293 293 292
280 280 280 279 276 276 276 275 273 271 273 276 277 279 280 280 281 282 283 283 284 285 286 286 286 287 288 289 291 293 293 292 291 290 290 290 291 290 290 291 292 292 292 293
283 283 282 282 280 278 278 277 274 273 275 276 275 278 280 282 284 285 286 287 287 287 287 286 286 288 290 292 293 293 293 294 294 294 293 293 293 293 292 293 293 292 292 293
Height
5870 5872 5873 5874 5876 5877 5878 5880 5881 5881 5881 5881 5879 5879 5879 5879 5878 5878 5877 5876 5875 5874 5873 5872 5870 5869 5867 5866 5864 5862 5860 5859 5857 5856 5854 5852 5850 5847 5845 5843 5842 5841 5839 5837
5862 5864 5865 5867 5868 5870 5871 5872 5872 5872 5873 5872 5871 5871 5871 5871 5870 5870 5869 5869 5868 5867 5865 5864 5863 5861 5860 5858 5857 5855 5853 5851 5849 5848 5846 5844 5842 5840 5839 5837 5835 5833 5831 5830
5855 5857 5857 5859 5861 5862 5863 5864 5865 5865 5866 5864 5864 5863 5863 5863 5862 5862 5861 5861 5860 5859 5857 5856 5855 5854 5852 5851 5849 5847 5845 5843 5842 5841 5839 5837 5834 5833 5831 5829 5828 5826 5824 5822
5848 5849 5849 5854 5853 5854 5855 5855 5856 5856 5857 5856 5856 5856 5855 5855 5854 5854 5853 5852 5851 5850 5849 5848 5847 5845 5844 5842 5841 5840 5838 5836 5834 5832 5831 5829 5827 5825 5823 5822 5819 5818 5816 5814
5840 5841 5842 5845 5845 5846 5847 5847 5848 5848 5849 5848 5848 5848 5847 5846 5846 5845 5845 5844 5843 5842 5841 5840 5839 5837 5836 5834 5832 5831 5829 5827 5825 5824 5822 5821 5819 5817 5815 5813 5811 5809 5807 5805
5832 5834 5836 5837 5837 5838 5839 5838 5840 5840 5840 5840 5840 5840 5839 5838 5837 5836 5835 5835 5834 5833 5832 5830 5829 5828 5827 5825 5824 5822 5820 5819 5817 5815 5814 5812 5810 5808 5806 5805 5803 5800 5798 5796
5823 5825 5827 5827 5828 5830 5832 5832 5831 5831 5831 5831 5831 5831 5830 5829 5828 5827 5826 5826 5825 5824 5822 5821 5820 5819 5817 5815 5814 5813 5812 5810 5808 5807 5805 5803 5801 5799 5797 5795 5793 5791 5789 5787
5815 5817 5820 5818 5819 5821 5822 5821 5821 5821 5822 5822 5822 5822 5821 5820 5819 5818 5817 5816 5815 5814 5813 5812 5811 5809 5808 5806 5804 5803 5802 5801 5799 5797 5796 5794 5792 5790 5787 5785 5783 5781 5779 5777
5808 5810 5809 5809 5810 5811 5812 5812 5812 5813 5813 5812 5812 5812 5812 5811 5810 5809 5808 5807 5805 5804 5803 5802 5801 5799 5798 5797 5795 5793 5792 5791 5789 5788 5786 5784 5782 5780 5778 5775 5773 5771 5769 5766
5798 5799 5800 5801 5801 5802 5802 5803 5803 5803 5803 5803 5802 5802 5802 5801 5800 5799 5799 5797 5796 5795 5793 5792 5791 5790 5789 5787 5785 5783 5782 5780 5779 5777 5775 5773 5771 5769 5767 5765 5762 5760 5758 5755
5790 5791 5791 5792 5792 5793 5794 5794 5794 5794 5794 5793 5793 5792 5792 5792 5791 5790 5789 5788 5787 5785 5784 5782 5781 5780 5778 5777 5775 5773 5771 5770 5768 5767 5765 5763 5761 5759 5756 5754 5751 5749 5747 5744
5781 5782 5782 5783 5784 5784 5784 5784 5784 5784 5784 5784 5783 5783 5783 5782 5781 5780 5779 5778 5777 5776 5775 5773 5772 5770 5769 5767 5765 5763 5762 5760 5758 5756 5754 5752 5750 5748 5745 5743 5740 5738 5736 5734
5772 5773 5773 5774 5775 5775 5775 5775 5775 5775 5775 5774 5774 5773 5773 5772 5772 5771 5770 5769 5768 5766 5765 5764 5762 5760 5759 5757 5755 5754 5752 5750 5748 5746 5743 5741 5739 5737 5735 5733 5730 5728 5726 5723
5764 5764 5765 5765 5766 5766 5766 5766 5766 5765 5765 5765 5764 5764 5763 5763 5762 5761 5760 5759 5758 5757 5755 5754 5752 5751 5749 5747 5745 5743 5742 5739 5737 5735 5733 5731 5729 5727 5724 5722 5720 5718 5715 5713
5756 5756 5756 5756 5757 5757 5757 5757 5756 5756 5756 5755 5755 5754 5753 5753 5752 5751 5750 5749 5748 5747 5746 5744 5743 5741 5739 5737 5736 5734 5731 5729 5728 5725 5723 5721 5718 5716 5714 5712 5710 5708 5705 5703
5747 5748 5748 5748 5748 5748 5748 5748 5747 5747 5746 5746 5745 5744 5744 5743 5742 5741 5740 5739 5738 5736 5735 5734 5732 5731 5729 5728 5726 5724 5722 5720 5717 5715 5713 5711 5709 5706 5704 5702 5700 5698 5695 5693
5739 5739 5739 5739 5740 5740 5740 5739 5739 5738 5737 5737 5736 5735 5734 5734 5732 5731 5730 5729 5728 5726 5725 5724 5722 5721 5720 5718 5716 5714 5712 5710 5708 5706 5703 5701 5699 5697 5695 5692 5690 5688 5686 5683
5730 5731 5731 5731 5731 5731 5731 5731 5730 5729 5729 5728 5727 5726 5726 5724 5723 5722 5721 5719 5718 5717 5715 5714 5713 5711 5710 5708 5706 5704 5703 5700 5698 5697 5695 5692 5690 5688 5685 5683 5681 5678 5676 5674
5722 5722 5722 5723 5723 5723 5723 5722 5721 5721 5720 5720 5719 5718 5717 5716 5714 5713 5712 5710 5709 5708 5706 5705 5703 5702 5700 5699 5697 5695 5693 5691 5689 5687 5686 5683 5681 5679 5676 5674 5671 5669 5667 5665
5713 5713 5713 5714 5714 5714 5714 5713 5713 5712 5712 5711 5710 5709 5708 5707 5706 5705 5704 5702 5701 5700 5698 5696 5695 5693 5692 5690 5688 5686 5684 5682 5680 5678 5676 5675 5673 5670 5668 5665 5663 5660 5658 5656
5704 5704 5704 5704 5705 5705 5705 5705 5704 5704 5703 5703 5702 5701 5700 5699 5698 5697 5695 5694 5693 5692 5690 5688 5686 5685 5683 5681 5679 5677 5675 5673 5671 5669 5667 5665 5663 5661 5659 5656 5654 5651 5649 5647
5695 5695 5695 5695 5695 5696 5696 5696 5695 5695 5695 5695 5694 5693 5692 5691 5690 5689 5687 5686 5685 5684 5682 5680 5679 5677 5675 5673 5671 5669 5666 5664 5662 5660 5658 5656 5654 5652 5650 5647 5645 5642 5640 5637
5687 5686 5686 5687 5687 5687 5687 5686 5686 5686 5686 5686 5686 5685 5684 5683 5682 5681 5680 5678 5677 5675 5674 5672 5670 5668 5666 5665 5662 5660 5658 5656 5654 5652 5649 5647 5645 5643 5641 5638 5636 5633 5631 5628
5678 5678 5678 5677 5677 5677 5677 5677 5677 5677 5677 5677 5677 5676 5676 5675 5674 5672 5671 5670 5668 5667 5665 5663 5662 5660 5658 5656 5653 5651 5649 5647 5645 5642 5640 5638 5636 5634 5632 5629 5627 5625 5622 5620
5670 5669 5669 5668 5668 5668 5668 5668 5668 5668 5669 5669 5668 5668 5667 5666 5665 5664 5662 5661 5660 5658 5656 5654 5652 5650 5648 5646 5644 5642 5640 5638 5636 5633 5631 5629 5627 5625 5623 5621 5618 5616 5614 5612
5662 5662 5661 5661 5660 5660 5659 5659 5660 5660 5660 5660 5660 5659 5658 5658 5656 5655 5654 5653 5651 5649 5647 5645 5644 5642 5640 5638 5636 5633 5631 5629 5627 5625 5622 5620 5618 5616 5614 5612 5610 5608 5606 5604
5655 5654 5654 5653 5653 5652 5652 5652 5652 5653 5653 5653 5652 5652 5651 5650 5648 5647 5646 5644 5642 5641 5639 5637 5635 5633 5631 5629 5627 5625 5623 5621 5618 5616 5614 5612 5610 5608 5606 5604 5602 5600 5598 5596